DLH8BM EDDL-EDDN

Flight info

Callsign DLH8BM
Flight time 0h 41m
Altitude 27000
Route KUMIK7T/23L KUMIK L603 TESGA Z719 ETOLU Z723 KOMIB T193 ERTES T194 DODAS DODAS1V
Aircraft A320/M-SDE3FGHIRWY/LB1

Departure

Time 2026-05-04 16:54
Airport Düsseldorf Airport (EDDL)

Arrival

Time 2026-05-04 17:35
Airport Nuremberg Airport (EDDN)
Time Latitude Longitude Altitude Speed Heading
2026-05-04 16:37 51.28068 6.76532 118 ft 0 kts 97°
2026-05-04 16:46 51.28069 6.76514 114 ft 2 kts 89°
2026-05-04 16:46 51.28065 6.76471 115 ft 2 kts 34°
2026-05-04 16:47 51.28045 6.76469 114 ft 0 kts 333°
2026-05-04 16:48 51.28062 6.76450 115 ft 4 kts 326°
2026-05-04 16:48 51.28091 6.76425 117 ft 6 kts 338°
2026-05-04 16:49 51.28188 6.76431 118 ft 8 kts
2026-05-04 16:49 51.28308 6.76487 115 ft 10 kts 334°
2026-05-04 16:50 51.28422 6.76635 115 ft 17 kts 53°
2026-05-04 16:50 51.28615 6.77040 116 ft 28 kts 52°
2026-05-04 16:51 51.28861 6.77554 116 ft 29 kts 52°
2026-05-04 16:51 51.28978 6.77801 115 ft 28 kts 53°
2026-05-04 16:51 51.29218 6.78303 116 ft 27 kts 52°
2026-05-04 16:52 51.29383 6.78571 114 ft 13 kts 13°
2026-05-04 16:52 51.29462 6.78566 118 ft 11 kts 355°
2026-05-04 16:53 51.29506 6.78439 116 ft 22 kts 233°
2026-05-04 16:53 51.28070 6.75431 639 ft 160 kts 232°
2026-05-04 16:54 51.27406 6.73993 1432 ft 162 kts 232°
2026-05-04 16:55 51.24113 6.66865 3532 ft 236 kts 232°
2026-05-04 16:55 51.21542 6.63607 5246 ft 253 kts 192°
2026-05-04 16:56 51.17916 6.64112 7155 ft 267 kts 167°
2026-05-04 16:56 51.14457 6.71140 9884 ft 296 kts 112°
2026-05-04 16:57 51.13784 6.74283 10509 ft 310 kts 112°
2026-05-04 16:57 51.12244 6.81184 11282 ft 350 kts 112°
2026-05-04 16:58 51.09692 6.92775 12945 ft 381 kts 112°
2026-05-04 16:58 51.08824 6.96740 13660 ft 386 kts 112°
2026-05-04 16:59 51.07015 7.04932 14984 ft 394 kts 113°
2026-05-04 17:00 51.03270 7.21693 17553 ft 408 kts 114°
2026-05-04 17:00 51.00362 7.34607 19244 ft 417 kts 114°
2026-05-04 17:01 50.98393 7.43309 20307 ft 422 kts 114°
2026-05-04 17:01 50.96387 7.52119 21339 ft 427 kts 114°
2026-05-04 17:02 50.94342 7.61087 22374 ft 432 kts 114°
2026-05-04 17:02 50.92281 7.70090 23336 ft 437 kts 114°
2026-05-04 17:03 50.91238 7.74633 23749 ft 440 kts 114°
2026-05-04 17:03 50.90187 7.79199 24135 ft 442 kts 115°
2026-05-04 17:03 50.88046 7.88473 24887 ft 448 kts 115°
2026-05-04 17:04 50.85892 7.97769 25644 ft 452 kts 115°
2026-05-04 17:04 50.83593 8.07056 26389 ft 452 kts 121°
2026-05-04 17:05 50.80231 8.15517 26905 ft 459 kts 128°
2026-05-04 17:05 50.76665 8.23917 27027 ft 466 kts 128°
2026-05-04 17:06 50.73006 8.32519 27022 ft 470 kts 128°
2026-05-04 17:06 50.71115 8.36716 27018 ft 467 kts 134°
2026-05-04 17:07 50.66319 8.43411 27011 ft 457 kts 152°
2026-05-04 17:07 50.64498 8.45044 27014 ft 455 kts 156°
2026-05-04 17:07 50.60756 8.48187 27006 ft 456 kts 155°
2026-05-04 17:07 50.57965 8.50536 27010 ft 456 kts 155°
2026-05-04 17:08 50.55161 8.52901 27008 ft 457 kts 155°
2026-05-04 17:08 50.49571 8.57616 26990 ft 455 kts 155°
2026-05-04 17:08 50.46777 8.59966 26982 ft 455 kts 155°
2026-05-04 17:09 50.44079 8.62583 26976 ft 459 kts 147°
2026-05-04 17:09 50.41617 8.65808 26970 ft 462 kts 142°
2026-05-04 17:09 50.39200 8.69130 26969 ft 462 kts 142°
2026-05-04 17:10 50.34353 8.75729 26968 ft 462 kts 143°
2026-05-04 17:10 50.27729 8.86770 26964 ft 473 kts 124°
2026-05-04 17:11 50.26289 8.91420 26962 ft 477 kts 115°
2026-05-04 17:11 50.25101 8.96268 26960 ft 479 kts 113°
2026-05-04 17:11 50.22975 9.06146 26959 ft 480 kts 111°
2026-05-04 17:12 50.21955 9.11129 26959 ft 481 kts 111°
2026-05-04 17:12 50.19868 9.21043 26955 ft 481 kts 112°
2026-05-04 17:13 50.18195 9.36494 26952 ft 489 kts 91°
2026-05-04 17:14 50.18416 9.52283 26975 ft 479 kts 91°
2026-05-04 17:14 50.18485 9.57471 26975 ft 477 kts 91°
2026-05-04 17:14 50.18585 9.66061 26967 ft 476 kts 91°
2026-05-04 17:15 50.18639 9.71235 26960 ft 477 kts 91°
2026-05-04 17:15 50.18735 9.81572 26963 ft 476 kts 91°
2026-05-04 17:16 50.18814 9.91904 26956 ft 475 kts 93°
2026-05-04 17:16 50.16382 10.06568 26951 ft 464 kts 121°
2026-05-04 17:17 50.14650 10.10778 26942 ft 460 kts 130°
2026-05-04 17:17 50.08506 10.22202 26943 ft 459 kts 130°
2026-05-04 17:18 50.06745 10.26371 26938 ft 463 kts 122°
2026-05-04 17:18 50.03947 10.35417 26940 ft 464 kts 118°
2026-05-04 17:19 50.01163 10.44475 26942 ft 464 kts 118°
2026-05-04 17:19 49.98343 10.53462 26200 ft 459 kts 122°
2026-05-04 17:20 49.94347 10.61076 24160 ft 454 kts 142°
2026-05-04 17:20 49.89056 10.66106 22650 ft 437 kts 160°
2026-05-04 17:20 49.86250 10.67658 21906 ft 431 kts 163°
2026-05-04 17:21 49.80588 10.70388 20483 ft 420 kts 171°
2026-05-04 17:21 49.74864 10.71469 19142 ft 410 kts 176°
2026-05-04 17:22 49.72050 10.72099 18498 ft 409 kts 169°
2026-05-04 17:22 49.69372 10.73557 17819 ft 409 kts 157°
2026-05-04 17:23 49.63360 10.82587 15888 ft 409 kts 120°
2026-05-04 17:23 49.62277 10.86639 15278 ft 409 kts 111°
2026-05-04 17:23 49.61215 10.95209 14071 ft 405 kts 101°
2026-05-04 17:24 49.60808 10.99491 13445 ft 401 kts 102°
2026-05-04 17:24 49.59563 11.12070 11556 ft 390 kts 102°
2026-05-04 17:25 49.59150 11.16187 11075 ft 388 kts 101°
2026-05-04 17:25 49.58325 11.24453 10949 ft 388 kts 101°
2026-05-04 17:26 49.57499 11.32698 10951 ft 388 kts 101°
2026-05-04 17:26 49.56364 11.44087 10954 ft 331 kts 102°
2026-05-04 17:27 49.55672 11.50773 10855 ft 303 kts 105°
2026-05-04 17:27 49.53624 11.55951 9785 ft 279 kts 146°
2026-05-04 17:28 49.50093 11.57768 8440 ft 268 kts 183°
2026-05-04 17:29 49.45704 11.53445 6466 ft 269 kts 252°
2026-05-04 17:29 49.46151 11.44854 4764 ft 268 kts 278°
2026-05-04 17:30 49.46965 11.36858 4009 ft 232 kts 279°
2026-05-04 17:31 49.47431 11.32241 3882 ft 208 kts 279°
2026-05-04 17:31 49.48049 11.26095 3173 ft 186 kts 280°
2026-05-04 17:32 49.48421 11.22381 2720 ft 166 kts 280°
2026-05-04 17:33 49.48893 11.17670 2073 ft 140 kts 281°
2026-05-04 17:33 49.49038 11.16177 1882 ft 139 kts 280°
2026-05-04 17:34 49.49483 11.11714 1375 ft 143 kts 280°
2026-05-04 17:34 49.49631 11.10197 1173 ft 144 kts 280°
2026-05-04 17:35 49.49942 11.07050 1024 ft 6 kts 262°
2026-05-04 17:35 49.49810 11.07054 1021 ft 12 kts 159°
2026-05-04 17:35 49.49763 11.07092 1021 ft 6 kts 139°
2026-05-04 17:36 49.49744 11.07143 1022 ft 6 kts 107°
2026-05-04 17:36 49.49732 11.07253 1022 ft 15 kts 98°
2026-05-04 17:36 49.49713 11.07447 1022 ft 21 kts 98°
2026-05-04 17:36 49.49691 11.07663 1026 ft 17 kts 99°
2026-05-04 17:37 49.49653 11.07765 1027 ft 8 kts 169°
2026-05-04 17:37 49.49600 11.07771 1025 ft 7 kts 156°
2026-05-04 17:37 49.49580 11.07831 1027 ft 6 kts 105°
2026-05-04 17:37 49.49552 11.07859 1024 ft 5 kts 175°
2026-05-04 17:38 49.49522 11.07855 1024 ft 3 kts 188°
2026-05-04 17:38 49.49514 11.07853 1026 ft 0 kts 188°